Погода в Пасадене

США     34°09′09″N   118°07′53″W
темп.,
°C
ветер,
м/с
пор.,
м/с
влажн.,
%
обл.,
%
осадки,
мм/ч
давл.,
гПа
погр.,
м
27 февраля, сб
сб2701:00+11ссв33260 0.0 101463
04:00+10ссв45330 0.0 1013172
07:00+9с56380 0.0 1014194
10:00+16с36210 0.0 1015940
13:00+18с37170 0.0 10131391
16:00+17с57190 0.0 10131099
19:00+10ссв56340 0.0 1015283
22:00+9ссв45370 0.0 1018163
28 февраля, вс
вс2801:00+8ссв452620 0.0 1019173
04:00+7ссв452210 0.0 1020160
07:00+7ссв55214 0.0 1022199
10:00+15ссв341212 0.0 1023685
13:00+17сз11102 0.0 10221277
16:00+17зюз01111 0.0 10211177
19:00+11св33150 0.0 1023141
22:00+10ссв33130 0.0 102481
1 марта, пн
пн101:00+9св33120 0.0 102454
04:00+8ссв33130 0.0 102360
07:00+9ссв33130 0.0 102374
10:00+16юз1290 0.0 1022736
13:00+17ююз3270 0.0 10201217
16:00+17ююз33110 0.0 1018914
19:00+12юв121851 0.0 1017174
22:00+10в221825 0.0 101871
2 марта, вт
вт201:00+9в222214 0.0 101641
04:00+8в222452 0.0 101441
07:00+8в2225100 0.0 101369
10:00+13ю441967 0.0 1012857
13:00+15ю572550 0.0 10091580
16:00+12ю694528 0.0 10071556
19:00+7ююв47826 0.4 1007634
22:00+6ю459453 8.4 1008402
3 марта, ср
ср301:00+5юв3487100 9.9 1007396
04:00+4св227686 10.5 1008258
07:00+5ссз347874 0.3 1010366
10:00+9з355839 0.3 1012964
13:00+12зюз34460 0.0 10131512
16:00+12юз125230 0.1 10141159
19:00+9вюв237115 0.0 1018224
22:00+8вюв33808 0.0 1021185